Regional Weather Roundup
Issued by NWS

Home | Current Version | Previous Version | Graphics & Text | Print | Product List | Glossary On
Versions: 1 2 3 4 5 6 7 8 9 10 11 12 13 14 15 16 17 18 19 20 21 22 23 24 25 26 27 28 29 30 31 32 33 34 35 36 37 38 39 40 41 42 43 44 45 46 47 48 49 50
000
ASUS45 KABQ 211710
RWRNM
NEW MEXICO REGIONAL WEATHER ROUNDUP
NATIONAL WEATHER SERVICE ALBUQUERQUE NM
1000 AM MST TUE NOV 21 2017

NOTE: "FAIR" MEANS FEW OR NO CLOUDS BELOW 12,000 FEET AGL WITH NO
       SIGNIFICANT WEATHER OR OBSTRUCTIONS TO VISION.

      THIS PRODUCT IS RELEASED AS TWO VERSIONS.  ONE VERSION NEAR
      THE TOP OF THE HOUR CONTAINING PRELIMINARY DATA FROM ALBUQUERQUE
      AND OTHER STATIONS.  A FINAL VERSION WITH ADDITIONAL DATA IS
      ISSUED ABOUT 10 MINUTES AFTER THE HOUR.

NMZ501-503-504-510>518-211800-
NORTHWEST PLATEAU/NORTHCENTRAL MOUNTAINS

CITY           SKY/WX    TMP DP  RH WIND       PRES   REMARKS
FARMINGTON     FAIR      39  12  33 CALM      30.30R
LOS ALAMOS     FAIR      44   9  23 NE7       30.30R
SANTA FE       FAIR      50   7  17 N20G25    30.26R
TAOS           FAIR      43   4  19 CALM      30.33R
ANGEL FIRE     FAIR      46  19  35 N5        30.33R

$$
NMZ402-403-502-505>509-211800-
WESTCENTRAL MOUNTAINS/SOUTHWEST MOUNTAINS

CITY           SKY/WX    TMP DP  RH WIND       PRES   REMARKS
GALLUP         FAIR      44   7  21 SW3       30.34S
GRANTS         FAIR      55  22  27 N14       30.32S
SILVER CITY    FAIR      65  16  15 W8        30.23R

$$
NMZ407-409-411-412-211800-
SOUTHERN DESERTS

CITY           SKY/WX    TMP DP  RH WIND       PRES   REMARKS
DEMING         FAIR      60  17  18 CALM      30.20R
LAS CRUCES     FAIR      61   5  11 NW21      30.17F
HOLLOMAN AFB   FAIR      65  13  13 N23G33    30.14F
ALAMOGORDO     FAIR      64  14  14 N20G28    30.13R
T OR C         FAIR      59   5  11 NE8       30.21S

$$
NMZ519>523-211800-
CENTRAL VALLEYS/CENTRAL HIGHLANDS

CITY           SKY/WX    TMP DP  RH WIND       PRES   REMARKS
ALBUQUERQUE    CLOUDY    51   7  16 N13       30.27R
DOUBLE EAGLE   MOSUNNY   54  12  19 NW20G25   30.29
MORIARTY ARPT  FAIR      55   8  15 N13       30.28R
CLINES CORNERS FAIR      51   7  16 NW18G30   30.25R
BELEN          FAIR      52   6  15 NE8       30.28R
SOCORRO        FAIR      51   4  14 N13       30.26R

$$
NMZ524>526-539-540-211800-
SOUTHCENTRAL MOUNTAINS

CITY           SKY/WX    TMP DP  RH WIND       PRES   REMARKS
RUIDOSO        FAIR      57  16  19 NW12      30.26R

$$
NMZ527>531-211800-
NORTHEAST HIGHLANDS/NORTHEAST PLAINS

CITY           SKY/WX    TMP DP  RH WIND       PRES   REMARKS
LAS VEGAS      FAIR      60  21  22 N21       30.21R
RATON          FAIR      53  20  27 NE28      30.25R
CLAYTON        FAIR      56  32  40 N31G41    30.21R

$$
NMZ532>537-211800-
EASTCENTRAL PLAINS

CITY           SKY/WX    TMP DP  RH WIND       PRES   REMARKS
SANTA ROSA     FAIR      62  17  17 NW5       30.15R
TUCUMCARI      FAIR      65  15  14 N15       30.14R
CANNON AFB     FAIR      62  19  19 NE26      30.14R
CLOVIS AIRPORT FAIR      63  20  19 N26G32    30.14R

$$
NMZ028-029-538-211800-
SOUTHEAST PLAINS

CITY           SKY/WX    TMP DP  RH WIND       PRES   REMARKS
ROSWELL        FAIR      73  15  11 N16G23    30.08R
ARTESIA        FAIR      66  18  15 N12       30.08S
CARLSBAD       FAIR      66  19  16 N17       30.05R
HOBBS          SUNNY     70   9   9 N14G33    30.02R


$$




USA.gov is the U.S. government's official web portal to all federal, state and local government web resources and services.